GOES 1 (SMS-C) [-] 1 08366U 75100A 19053.27924458 -.00000029 00000-0 00000+0 0 9996 2 08366 10.9527 311.0152 0005732 336.3345 205.6225 1.00308413158417 GOES 2 [-] 1 10061U 77048A 19053.21460278 -.00000126 00000-0 00000+0 0 9991 2 10061 12.3137 320.5736 0018668 345.0329 200.3393 0.99395006 96958 GOES 3 [-] 1 10953U 78062A 19053.40938538 -.00000220 00000-0 00000+0 0 9993 2 10953 12.5209 324.3610 0005617 355.9235 275.3596 0.99360096102045 GOES 4 [-] 1 11964U 80074A 19053.41768799 .00000030 00000-0 00000+0 0 9991 2 11964 13.3618 328.0970 0036315 28.7300 160.5241 0.99229794101116 GOES 5 [-] 1 12472U 81049A 19053.43946299 .00000026 00000-0 00000+0 0 9999 2 12472 13.7564 338.5369 0005387 320.0728 240.4092 1.00319782 96171 GOES 6 [-] 1 14050U 83041A 19051.41147966 .00000000 00000-0 00000+0 0 9999 2 14050 14.0903 343.5278 0003338 342.0115 206.7717 1.00311303189240 GOES 7 [-] 1 17561U 87022A 19051.88226118 -.00000047 00000-0 00000+0 0 9992 2 17561 15.0293 359.5469 0008686 336.2305 207.4925 0.99888897100278 GOES 8 [-] 1 23051U 94022A 19053.05688029 -.00000061 00000-0 00000+0 0 9991 2 23051 12.0788 33.4250 0009613 289.3465 54.7353 0.98905718 97697 GOES 9 [-] 1 23581U 95025A 19053.55962081 -.00000071 00000-0 00000+0 0 9992 2 23581 11.5702 33.1607 0003282 330.7958 195.8957 0.98800645 86353 GOES 10 [-] 1 24786U 97019A 19053.42824352 -.00000056 00000-0 00000+0 0 9992 2 24786 10.0455 38.4173 0026672 184.7280 351.0905 0.99121076 79579 GOES 11 [-] 1 26352U 00022A 19053.47177425 -.00000266 00000-0 00000+0 0 9991 2 26352 6.1902 68.6562 0005504 224.2933 155.3735 0.99043636 68531 GOES 12 [-] 1 26871U 01031A 19053.27354306 -.00000247 00000-0 00000+0 0 9990 2 26871 7.4062 55.7940 0011107 257.2231 283.6813 0.99140615 64249 GOES 13 [B] 1 29155U 06018A 19053.50631969 -.00000305 00000-0 00000+0 0 9992 2 29155 0.4004 100.7824 0009065 315.1804 217.9017 1.00258479 46728 GOES 14 [S] 1 35491U 09033A 19053.49759608 -.00000116 00000-0 00000+0 0 9991 2 35491 0.0219 117.0630 0008985 127.0000 342.8474 1.00270626 35367 GOES 15 [+] 1 36411U 10008A 19053.60164400 .00000033 00000-0 00000+0 0 9998 2 36411 0.0483 285.5531 0002683 345.0143 329.9214 1.00267154 32887 GOES 16 [+] 1 41866U 16071A 19053.50344090 -.00000271 00000-0 00000+0 0 9993 2 41866 0.0448 280.6326 0000758 96.2919 241.1946 1.00271184 8319 GOES-S [+] 1 43226U 18022A 19053.42841243 .00000075 00000-0 00000+0 0 9997 2 43226 0.0268 73.2172 0003509 300.4302 155.3933 1.00269794 3646